Volver al catálogo

QIANFAN-75

ActivoComunicacionesPO
NORAD 63161·PAYLOAD·🇨🇳 China

Lanzado Mar 11, 2025 desde Wenchang Space Launch Site

Loading…

Próximos Pases (próximas 24 horas)

TLE

ActualizadoSource: Space-Track

Época: Sep 14, 2026, 12:50 UTC

1 63161U 25046C   26257.53517928  .00000090  00000-0  11999-3 0  9997
2 63161  88.9653 291.5168 0017683  55.2121 305.0691 13.51030301 84587

Sigue QIANFAN-75 en tiempo real con AllMySat

Download on the App Store